Wind_Speed
19 17 16 16 17 17 16 17 17 17 17 17 16 17 17 18 19 20 19 20 20 20 20 22 22 23 24 24 24 25 24 22 25 24 22 23 22 20 19 20 18 23 23 20 19
22 21 20 19 19 21 21 22 23 24 23 23 22 22 21 21 22 22 22 22 22 21 21 22 23 25 26 27 27 27 25 24 28 27 26 25 25 24 23 24 23 25 25 23 21
27 26 26 26 25 26 26 27 28 28 29 28 28 28 27 26 27 26 26 26 25 25 25 23 24 26 27 29 29 27 26 28 28 31 31 27 27 27 28 24 27 26 28 28 25
34 33 32 32 32 32 33 33 33 33 34 33 33 32 29 27 29 29 27 26 26 27 28 28 27 28 29 30 31 30 28 29 28 32 32 31 28 29 30 27 30 29 31 31 30
40 39 39 39 39 39 39 39 38 38 38 38 37 35 32 26 28 29 28 28 28 29 31 32 33 36 35 36 35 33 30 29 28 30 32 34 29 35 26 27 32 34 30 29 29
40 40 41 40 40 40 39 38 37 36 36 37 36 34 30 22 31 33 31 31 33 35 37 39 39 40 39 35 37 37 34 31 30 29 33 36 31 41 25 34 31 33 32 31 27
35 35 36 36 36 37 37 37 37 37 38 38 38 37 32 25 29 33 38 38 40 40 40 42 44 44 44 41 42 41 41 35 28 31 38 42 42 33 32 35 33 32 34 32 31
42 42 42 42 41 41 42 41 39 39 40 41 41 42 36 31 36 38 42 42 43 43 43 44 46 48 46 43 46 45 47 40 29 34 40 47 48 32 36 40 39 36 35 35 34
44 45 45 44 44 44 44 44 44 43 43 45 45 46 41 37 37 40 41 42 44 44 44 43 46 49 47 43 48 44 51 50 43 30 41 47 48 37 35 39 42 41 39 41 39
47 47 48 47 47 46 47 47 48 48 48 48 49 49 49 44 43 41 40 42 44 46 46 46 49 50 45 43 49 48 50 50 48 34 41 51 51 46 43 42 35 34 34 37 39
51 51 51 51 51 51 51 51 52 52 52 52 54 53 52 52 49 44 42 43 46 47 47 51 55 50 42 46 48 50 51 51 48 44 51 50 52 48 40 38 32 32 35 34 30
51 51 50 51 52 53 53 54 56 56 56 56 54 55 53 53 52 47 46 46 45 46 46 51 54 45 50 49 49 51 52 53 51 51 53 53 52 50 44 36 36 30 25 31 34
55 55 54 54 56 57 57 57 58 58 60 56 55 55 54 52 52 49 49 48 49 49 45 52 50 45 47 48 46 47 49 49 55 53 53 55 52 51 42 36 30 34 36 33 34
57 61 55 58 60 60 60 60 58 59 62 63 60 57 55 53 53 52 48 44 40 37 38 46 41 41 41 45 45 52 44 49 50 54 56 52 53 49 44 40 36 37 38 35 32
53 53 55 57 58 58 61 59 57 57 63 60 61 57 51 51 49 47 49 49 46 44 44 48 46 46 50 44 47 53 54 50 51 54 57 59 59 53 53 53 52 45 44 46 47
48 52 52 53 54 57 56 56 52 55 68 65 63 61 60 58 56 57 58 60 59 59 58 53 53 56 55 54 51 52 54 58 56 56 60 59 58 55 56 59 60 57 60 61 60
52 51 52 50 49 53 56 52 54 59 62 63 60 56 53 53 54 56 59 60 60 61 60 59 59 59 57 58 55 52 52 58 63 64 62 60 64 56 61 59 62 62 65 66 66
54 53 55 53 50 52 58 55 60 64 64 62 59 58 56 54 56 58 58 59 60 62 67 68 66 60 59 57 59 58 59 63 63 64 65 62 69 63 59 60 61 65 66 68 67
64 65 59 59 64 65 60 64 67 63 61 60 63 66 61 61 59 61 64 64 64 66 68 69 76 73 72 69 65 66 66 59 62 62 65 67 69 69 62 60 60 64 64 62 61
66 66 68 61 64 62 63 74 72 68 70 72 72 70 72 70 70 72 74 74 72 71 73 76 78 77 77 76 76 72 69 69 68 68 72 75 73 72 62 60 63 63 61 60 58
67 68 70 66 64 68 71 74 72 67 65 68 70 68 71 72 68 65 69 71 73 72 72 72 74 79 82 82 75 75 75 74 70 66 72 76 75 67 65 59 63 62 63 65 59
66 67 69 69 69 70 72 66 64 66 68 70 69 68 70 67 70 71 71 68 68 71 73 70 73 76 73 72 71 72 71 69 70 76 73 72 70 62 64 64 64 67 68 67 68
62 62 63 65 68 66 64 62 62 62 64 68 69 69 67 69 72 68 69 69 68 67 69 68 65 70 70 74 75 74 70 71 68 64 65 66 66 57 58 66 72 72 74 73 73
61 63 65 65 64 65 65 66 68 64 64 64 67 68 69 70 68 66 64 64 62 65 64 63 58 68 72 72 69 71 70 68 68 71 71 74 77 72 77 76 65 64 67 70 72
66 66 67 68 67 66 66 68 69 67 65 62 66 65 66 68 69 66 61 64 66 66 64 64 70 68 68 70 72 71 70 67 70 73 78 78 83 77 74 66 67 69 68 67 67
68 67 68 66 64 65 63 64 64 62 63 64 65 64 65 69 67 68 67 68 68 66 65 66 69 69 69 67 68 72 69 66 69 71 72 73 75 75 78 80 72 73 72 66 72
65 66 65 65 65 66 66 65 65 65 66 67 69 70 69 69 70 71 70 70 70 70 68 70 68 70 76 70 73 78 72 72 75 72 76 80 79 79 78 77 75 75 80 80 80
Wind_Direction
256 260 263 261 258 263 273 283 290 293 294 296 296 297 299 298 297 296 298 294 297 298 299 300 300 300 300 300 299 299 301 299 297 297 295 297 294 292 297 290 285 284 294 297 299
256 256 259 260 261 265 271 278 285 290 293 295 294 294 294 294 291 290 292 293 294 296 296 296 297 297 297 295 294 293 299 292 295 292 293 294 292 289 291 286 272 277 285 293 290
259 260 261 264 267 269 273 277 280 283 285 287 289 289 290 291 288 290 290 294 296 297 296 294 295 295 296 293 292 295 298 290 293 292 293 292 289 290 287 285 276 275 277 279 273
263 264 267 268 271 274 277 278 279 280 281 282 282 283 283 286 286 284 289 289 291 292 293 293 293 291 290 290 293 296 295 289 292 291 296 292 290 285 284 284 278 275 278 281 280
267 268 270 270 272 273 274 276 277 277 278 278 279 278 279 283 278 282 284 286 287 288 289 290 291 290 291 295 293 295 291 293 291 292 292 290 292 283 293 284 275 280 279 275 279
264 267 269 270 271 271 271 272 272 273 274 276 276 276 275 277 276 283 284 285 287 289 290 290 289 289 288 290 293 296 294 293 295 293 288 284 277 282 299 281 284 282 282 278 276
260 261 263 266 269 270 270 270 271 272 272 273 274 274 273 274 275 280 283 285 286 286 284 284 284 283 285 288 289 289 290 292 300 290 283 280 279 294 292 282 281 275 276 277 277
262 262 264 265 266 267 268 269 268 271 273 274 274 275 275 274 280 280 281 283 282 282 282 281 281 281 283 283 286 288 288 291 282 281 287 286 288 288 284 284 280 276 274 276 280
262 264 263 264 266 267 269 269 269 270 271 272 274 276 277 276 275 277 280 283 284 283 280 278 278 279 279 283 284 289 287 282 282 287 286 283 284 286 276 277 281 283 286 284 282
264 264 266 266 266 266 267 268 269 269 271 272 274 276 278 279 278 277 279 281 281 281 281 279 276 275 281 287 282 279 279 283 287 289 277 278 281 282 285 285 292 293 288 285 282
265 266 266 267 269 268 269 269 269 269 269 270 273 274 278 279 279 278 279 277 277 278 279 279 278 281 286 276 278 279 280 283 286 286 280 277 282 285 284 288 293 292 290 291 284
265 266 266 267 267 269 269 270 270 270 269 270 271 274 275 277 278 280 281 281 274 274 277 278 275 281 275 276 276 279 281 281 282 282 279 284 284 284 289 292 296 291 288 292 289
263 263 264 266 269 269 270 271 270 270 271 270 269 271 272 274 277 280 281 282 281 276 276 271 274 275 277 276 277 278 278 281 279 280 280 284 284 284 286 289 286 290 292 290 291
265 266 266 268 270 270 270 272 268 269 273 274 272 271 271 273 275 278 280 281 278 280 273 269 268 272 275 278 280 275 278 277 280 280 281 277 277 279 287 287 283 282 284 285 280
264 267 268 268 270 270 271 270 268 271 272 274 276 277 276 276 280 281 280 280 279 275 271 272 272 269 268 276 278 279 277 278 278 277 275 274 280 284 288 289 287 285 289 292 291
267 267 269 268 268 270 270 268 269 269 269 271 275 278 280 280 281 278 278 277 274 272 272 273 271 268 269 270 275 276 275 274 273 273 271 278 283 273 278 281 286 289 297 298 294
267 269 267 267 267 271 274 273 268 268 272 273 273 278 282 282 281 282 280 278 275 273 270 271 271 272 269 268 273 275 274 271 273 275 277 278 277 267 276 284 287 294 295 294 291
268 271 272 266 272 275 272 267 270 278 277 269 270 275 276 278 279 280 280 280 280 279 276 273 268 269 270 275 276 276 278 275 278 280 277 273 270 265 277 279 285 290 290 288 287
261 262 266 275 271 274 269 264 272 272 272 272 273 273 272 270 278 277 275 274 275 277 279 280 277 278 278 277 276 277 274 280 279 277 274 271 273 273 276 282 283 282 283 289 288
270 269 272 277 280 281 280 272 274 279 280 280 278 278 276 274 278 281 279 274 274 276 279 279 279 274 277 277 277 278 281 279 279 280 279 280 275 276 276 276 276 277 279 275 272
272 273 276 276 278 277 278 282 282 284 284 280 280 279 279 280 280 277 277 279 281 282 280 283 283 278 278 278 282 280 277 278 280 277 278 282 282 281 278 275 276 275 268 268 271
272 273 274 275 274 275 277 280 279 280 279 278 276 276 277 275 275 274 275 275 278 279 280 281 283 285 285 281 280 279 280 280 280 284 283 281 281 287 283 279 272 271 272 270 265
275 275 275 275 276 280 280 278 274 276 276 275 273 274 272 271 271 270 271 273 274 273 274 277 278 278 276 279 283 282 281 280 279 276 272 270 271 268 268 271 274 272 271 269 266
279 278 278 278 280 279 279 278 278 277 275 272 270 270 271 270 269 271 272 271 270 272 272 273 269 272 273 275 274 270 271 273 273 270 266 266 273 273 275 276 275 273 273 271 271
282 283 283 282 281 280 279 279 279 280 278 274 271 271 272 271 271 269 270 268 270 271 272 270 269 271 271 271 272 272 271 270 267 269 273 274 274 274 275 274 277 279 272 265 270
279 280 280 280 280 279 281 283 281 281 279 277 276 276 273 272 272 272 272 271 271 271 270 270 273 274 273 274 274 273 273 273 272 276 274 270 270 272 275 279 278 267 263 269 266
275 277 277 278 281 282 283 284 285 283 280 281 278 275 272 270 269 269 268 268 269 269 271 272 273 275 274 274 273 270 277 276 276 274 272 274 276 278 280 280 278 268 264 265 271
Height
5871 5872 5873 5873 5874 5874 5875 5875 5875 5874 5874 5874 5873 5873 5873 5873 5872 5871 5871 5871 5869 5868 5867 5866 5865 5864 5863 5862 5861 5860 5861 5860 5858 5857 5857 5856 5855 5855 5856 5853 5852 5850 5849 5849 5848
5867 5868 5869 5870 5870 5871 5871 5871 5871 5871 5870 5870 5870 5870 5869 5869 5868 5868 5868 5866 5865 5865 5864 5863 5861 5860 5859 5858 5857 5856 5857 5855 5852 5851 5852 5851 5850 5850 5851 5849 5846 5845 5845 5845 5845
5863 5863 5864 5865 5865 5866 5866 5866 5866 5866 5866 5866 5865 5865 5865 5865 5864 5863 5863 5862 5861 5860 5859 5858 5857 5856 5854 5852 5851 5853 5852 5848 5848 5845 5845 5846 5844 5844 5844 5845 5839 5841 5839 5838 5838
5857 5858 5859 5859 5860 5860 5861 5861 5861 5860 5860 5860 5860 5860 5861 5861 5860 5858 5858 5857 5856 5855 5854 5853 5852 5849 5848 5846 5845 5846 5846 5844 5844 5838 5837 5837 5838 5837 5836 5838 5832 5833 5832 5832 5830
5851 5852 5853 5853 5853 5854 5854 5854 5855 5855 5854 5854 5853 5854 5855 5858 5852 5852 5853 5852 5851 5850 5848 5846 5845 5842 5842 5842 5839 5839 5840 5838 5837 5834 5831 5828 5831 5826 5832 5830 5824 5824 5825 5824 5823
5844 5845 5846 5846 5847 5847 5847 5847 5848 5847 5847 5846 5846 5847 5849 5854 5847 5846 5845 5845 5845 5844 5843 5840 5839 5836 5835 5836 5834 5833 5833 5834 5833 5830 5825 5820 5823 5819 5828 5818 5819 5817 5817 5817 5817
5836 5837 5838 5838 5840 5840 5840 5840 5840 5840 5840 5839 5839 5839 5842 5847 5843 5841 5838 5838 5838 5837 5836 5833 5830 5829 5828 5830 5827 5824 5823 5826 5829 5825 5817 5812 5813 5818 5817 5812 5811 5811 5809 5809 5809
5829 5829 5830 5831 5831 5832 5832 5832 5832 5832 5832 5831 5831 5830 5834 5839 5837 5834 5831 5830 5830 5828 5827 5825 5821 5819 5820 5821 5817 5817 5813 5817 5824 5818 5812 5804 5800 5816 5810 5804 5803 5803 5803 5802 5802
5820 5820 5821 5821 5822 5823 5823 5824 5824 5823 5823 5822 5822 5820 5825 5829 5829 5826 5825 5824 5822 5820 5817 5816 5812 5809 5811 5814 5806 5810 5801 5802 5806 5815 5802 5794 5790 5802 5803 5799 5795 5798 5799 5796 5795
5811 5811 5812 5812 5812 5813 5814 5814 5814 5814 5814 5813 5812 5814 5814 5817 5817 5818 5818 5816 5813 5811 5810 5808 5801 5799 5804 5806 5797 5795 5791 5791 5793 5807 5797 5783 5780 5786 5790 5789 5792 5791 5790 5788 5785
5801 5801 5802 5803 5804 5803 5804 5805 5805 5805 5804 5803 5802 5803 5803 5803 5804 5808 5808 5807 5805 5803 5802 5797 5793 5795 5799 5791 5789 5786 5782 5781 5786 5788 5778 5777 5771 5775 5781 5780 5784 5783 5780 5780 5779
5790 5791 5791 5792 5792 5793 5793 5792 5792 5792 5792 5792 5792 5790 5791 5791 5791 5794 5795 5795 5795 5794 5792 5788 5781 5790 5783 5782 5779 5777 5775 5772 5771 5773 5768 5765 5760 5765 5772 5773 5770 5773 5771 5768 5768
5779 5779 5780 5780 5781 5781 5781 5781 5780 5779 5777 5782 5781 5779 5780 5780 5780 5782 5781 5780 5781 5781 5782 5775 5776 5776 5773 5771 5771 5769 5765 5764 5759 5760 5759 5754 5745 5751 5760 5765 5764 5762 5761 5760 5758
5767 5767 5768 5768 5770 5769 5768 5768 5768 5768 5764 5765 5767 5769 5770 5770 5770 5768 5768 5768 5767 5767 5766 5763 5768 5765 5762 5761 5760 5754 5758 5753 5752 5749 5744 5745 5731 5739 5749 5753 5754 5754 5750 5747 5748
5754 5753 5755 5755 5755 5756 5757 5756 5756 5759 5752 5752 5749 5751 5756 5760 5759 5759 5757 5755 5755 5755 5756 5756 5754 5753 5751 5751 5745 5748 5744 5743 5742 5739 5736 5730 5731 5735 5735 5733 5732 5737 5741 5741 5737
5742 5742 5742 5743 5743 5742 5743 5744 5746 5748 5735 5740 5740 5742 5744 5746 5747 5746 5745 5743 5741 5739 5740 5742 5741 5739 5738 5738 5735 5732 5730 5727 5725 5725 5724 5728 5727 5721 5727 5723 5720 5722 5721 5718 5718
5730 5731 5732 5731 5732 5731 5730 5731 5734 5730 5729 5731 5731 5732 5732 5731 5729 5728 5728 5729 5728 5724 5725 5724 5724 5726 5723 5721 5721 5718 5716 5710 5707 5707 5713 5713 5709 5718 5715 5720 5716 5714 5711 5705 5699
5717 5718 5720 5720 5718 5718 5717 5719 5718 5719 5720 5721 5718 5717 5717 5717 5716 5714 5712 5714 5716 5712 5709 5706 5711 5711 5711 5709 5706 5703 5702 5698 5688 5692 5694 5692 5689 5707 5708 5707 5707 5702 5694 5691 5685
5703 5704 5707 5706 5702 5700 5701 5702 5709 5710 5708 5707 5706 5702 5706 5704 5699 5697 5695 5699 5701 5700 5692 5687 5692 5695 5692 5690 5690 5689 5682 5685 5672 5671 5667 5677 5677 5684 5700 5698 5695 5686 5681 5673 5671
5686 5687 5691 5687 5685 5682 5680 5686 5691 5697 5694 5690 5687 5686 5689 5688 5682 5678 5676 5683 5684 5683 5677 5668 5662 5681 5677 5676 5674 5667 5669 5663 5661 5650 5643 5644 5658 5662 5683 5688 5680 5671 5662 5657 5653
5670 5671 5676 5673 5668 5665 5665 5670 5672 5678 5675 5669 5669 5665 5668 5669 5665 5662 5658 5661 5666 5660 5658 5651 5643 5658 5652 5659 5660 5653 5645 5643 5637 5635 5626 5623 5627 5652 5657 5664 5654 5643 5635 5638 5642
5654 5657 5657 5655 5651 5651 5654 5659 5661 5662 5659 5651 5651 5652 5650 5650 5646 5644 5643 5645 5649 5644 5638 5638 5626 5624 5634 5639 5636 5632 5628 5628 5618 5615 5612 5602 5599 5629 5632 5638 5624 5619 5618 5619 5619
5638 5639 5639 5635 5635 5638 5639 5638 5638 5645 5645 5635 5632 5634 5636 5631 5626 5628 5626 5631 5630 5627 5622 5619 5614 5609 5611 5618 5619 5610 5613 5609 5606 5600 5593 5587 5586 5607 5603 5601 5605 5603 5602 5601 5600
5620 5619 5623 5617 5622 5618 5619 5617 5619 5626 5623 5620 5615 5615 5615 5612 5613 5606 5609 5609 5612 5609 5609 5604 5600 5597 5593 5594 5599 5593 5594 5593 5591 5582 5576 5572 5569 5579 5579 5578 5580 5579 5578 5578 5579
5602 5601 5600 5601 5605 5603 5600 5599 5605 5607 5601 5603 5598 5600 5598 5592 5592 5590 5591 5590 5592 5593 5590 5586 5579 5582 5579 5577 5574 5572 5572 5577 5572 5566 5556 5559 5555 5549 5555 5557 5557 5556 5555 5555 5556
5585 5586 5585 5587 5586 5585 5585 5587 5584 5590 5580 5582 5576 5582 5579 5573 5575 5574 5574 5574 5570 5572 5573 5567 5560 5559 5556 5563 5553 5547 5552 5554 5554 5552 5541 5538 5536 5532 5535 5537 5537 5536 5536 5532 5532
5566 5567 5567 5570 5570 5567 5569 5568 5566 5565 5563 5562 5561 5557 5561 5558 5556 5552 5555 5554 5552 5551 5554 5550 5546 5543 5531 5544 5531 5523 5542 5535 5528 5529 5521 5521 5519 5515 5512 5513 5511 5514 5511 5510 5508